Flag for India Weather past 2 weeks in Gandhinagar, Gujarat, India

Now
113 °F

Duststorm.


Feels Like: 121 °F
Forecast: 85 / 108 °F
Wind: 9 mph from West

Location: Ahmadabad Airport

Current Time: May 24, 2015 at 5:03:48 PM

Latest Report: May 24, 2015 at 4:40 PM


Visibility: 3 mi

Pressure: 29.56 "Hg

Humidity: 24%

Dew point: 68 °F

Location of GandhinagarLocation

Historic Weather in Gandhinagar — Graph

°F

Gandhinagar temperature yesterday

Maximum temperature yesterday: 113 °F (at 2:40 PM)
Minimum temperature yesterday: 84 °F (at 5:40 AM)
Average temperature yesterday: 99 °F

Past Weeks' High & Low Weather Summary

 TemperatureHumidityPressure
High117 °F (May 16, 3:40 PM)75% (May 12, 7:40 AM)29.80 "Hg (May 12, 7:40 AM)
Low82 °F (May 14, 5:40 AM)10% (May 17, 5:10 PM)29.50 "Hg (May 17, 4:10 PM)
Average97 °F42%29.67 "Hg
* Reported May 9 3:40 PM — May 24 3:40 PM, Gandhinagar, Weather by CustomWeather, © 2015

Note: Actual official high and low records may vary slightly from our data, if they occured in-between our weather recording intervals... More about our weather records

Advertising

Gandhinagar weather history for previous 24 hours

 ConditionsComfort  
Time TempWeatherWind HumidityBarometerVisibility
3:40 PM
Sun, May 24
113 °FDuststorm.12 mph21%29.56 "Hg3 mi
1:40 PM108 °FClear.12 mph30%29.62 "Hg4 mi
1:10 PM106 °FClear.15 mph32%29.65 "Hg4 mi
12:10 PM102 °FClear.14 mph40%29.68 "Hg4 mi
11:40 AM100 °FClear.13 mph42%29.71 "Hg4 mi
11:10 AM99 °FPassing clouds.12 mph44%29.71 "Hg4 mi
10:40 AM95 °FPassing clouds.13 mph50%29.71 "Hg3 mi
9:10 AM90 °FHaze.14 mph63%29.71 "Hg2 mi
8:40 AM90 °FHaze.12 mph63%29.71 "Hg2 mi
7:40 AM86 °FHaze.10 mph70%29.71 "Hg2 mi
6:40 AM84 °FClear.10 mph70%29.68 "Hg2 mi
5:40 AM86 °FClear.13 mph66%29.68 "Hg2 mi
5:10 AM86 °FClear.10 mph66%29.68 "Hg2 mi
4:40 AM86 °FClear.10 mph66%29.65 "Hg2 mi
4:10 AM88 °FClear.10 mph62%29.65 "Hg2 mi
3:10 AM88 °FClear.8 mph62%29.65 "Hg2 mi
2:40 AM90 °FClear.8 mph59%29.62 "Hg2 mi
2:10 AM90 °FClear.10 mph59%29.62 "Hg2 mi
1:40 AM90 °FClear.10 mph55%29.62 "Hg2 mi
1:10 AM91 °FClear.13 mph52%29.65 "Hg2 mi
12:10 AM93 °FClear.12 mph47%29.65 "Hg2 mi
11:10 PM
Sat, May 23
95 °FClear.13 mph39%29.65 "Hg2 mi
10:40 PM95 °FClear.7 mph53%29.65 "Hg2 mi
10:10 PM95 °FClear.8 mph56%29.65 "Hg2 mi
9:10 PM95 °FClear.9 mph63%29.62 "Hg2 mi
8:40 PM95 °FClear.12 mph63%29.62 "Hg2 mi
8:10 PM97 °FClear.12 mph60%29.59 "Hg2 mi
7:40 PM97 °FClear.14 mph56%29.59 "Hg2 mi
5:40 PM111 °FClear.14 mph25%29.53 "Hg4 mi
5:10 PM111 °FClear.12 mph25%29.53 "Hg4 mi
Weather by CustomWeather, © 2015

See weather overviewHow to use our weather pages